Location: Williams Lake
(52.1170°N, 122.1500°W)
Time: 08:46:32
(UTC-08:00)

Daily predictions for brighter satellites

Satellite Brightness Start Highest point End
(mag) Time Altitude Azimuth Time Altitude Azimuth Time Altitude Azimuth
Cosmos 1814 Rocket 4.0 16:38:03 10° NNW 16:43:26 73° ENE 16:48:47 10° SSE
Cosmos 1459 Rocket 4.1 16:38:53 10° S 16:45:14 90° SSE 16:51:34 10° N
Cosmos 1933 3.6 16:41:53 10° SSE 16:45:45 47° E 16:49:39 10° NNE
Cosmos 1484 Rocket 3.4 16:42:44 10° SE 16:46:19 36° ENE 16:49:59 10° N
Meteor 2-10 Rocket 3.7 16:41:13 10° S 16:46:28 68° E 16:52:00 10° NNE
USA 238 DEB 4.4 16:41:05 10° WSW 16:47:50 50° NNW 16:54:41 10° NE
USA 238 4.3 16:41:11 10° WSW 16:47:56 50° NNW 16:54:47 10° NE
CZ-4 R/B 2.1 16:45:23 10° SE 16:48:44 29° ENE 16:52:05 10° N
Cosmos 540 Rocket 4.0 16:43:58 10° NNW 16:48:45 36° NE 16:53:30 10° ESE
COSMOS 2455 3.4 16:45:26 10° S 16:51:03 43° ESE 16:56:43 10° NE
Cosmos 2297 Rocket 4.3 16:48:31 10° NW 16:51:07 13° NNW 16:53:42 10° NNE
Cosmos 44 3.6 16:47:59 10° NW 16:52:22 43° NE 16:56:57 10° ESE
Cosmos 1340 2.8 16:50:28 10° S 16:54:09 55° E 16:57:53 10° NNE
Cosmos 2082 Rocket 2.5 16:51:04 10° NNW 16:56:36 47° NE 17:02:03 10° SE
Cosmos 1862 Rocket 4.0 16:52:58 10° SSE 16:57:10 43° E 17:01:26 10° NNE
IRAS Rocket 4.2 16:52:10 10° SSE 16:57:42 82° ENE 17:03:15 10° NNW
Cosmos 1862 4.3 16:53:47 10° NNW 16:57:43 52° W 17:01:38 10° S
CSL-04 Rocket 3.6 16:53:19 10° SSE 16:58:34 68° ENE 17:03:56 10° NNW
Cosmos 1437 3.3 16:55:41 10° SSE 16:58:38 35° E 17:01:35 10° NNE
Sich 1 Rocket 4.1 16:56:18 10° N 17:00:24 36° ENE 17:04:30 10° SE
Cosmos 2242 Rocket 3.7 16:56:09 10° S 17:00:37 59° E 17:05:05 10° NNE
SL-23 DEB 3.9 16:57:51 10° W 17:01:15 84° S 17:06:25 10° E
Cosmos 841 Rocket 3.5 16:56:49 10° NNW 17:02:08 72° ENE 17:07:23 10° SSE
Ariane Rocket 3.0 16:59:00 10° SSE 17:04:03 67° ENE 17:09:06 10° N
Cosmos 2233 Rocket 4.3 16:58:16 10° SSE 17:04:09 46° E 17:10:01 10° NNE
ERS-2 3.1 17:01:57 10° ESE 17:05:01 25° ENE 17:08:06 10° N
Meteor 1-20 Rocket 4.3 16:59:37 10° N 17:05:05 50° ENE 17:10:25 10° SSE
Cosmos 1850 Rocket 4.3 17:02:07 10° SSW 17:07:17 69° WNW 17:12:29 10° NNE
ATLAS CENTAUR R/B 3.4 17:05:42 10° NNW 17:07:24 13° N 17:09:06 10° NNE
Okean 1-7 4.5 17:04:51 10° SE 17:07:49 18° E 17:10:49 10° NE
Meteor 1-25 Rocket 4.4 17:02:25 10° N 17:08:14 59° ENE 17:13:57 10° SSE
AQUARIUS 4.1 17:06:28 10° SSE 17:10:54 64° ENE 17:15:22 10° N
SJ-7 4.3 17:07:55 10° SSE 17:12:03 73° ENE 17:16:08 10° N
Cosmos 1782 4.1 17:09:17 10° SE 17:12:18 21° E 17:15:11 11° NE
ALOS 3.2 17:10:51 10° ESE 17:14:39 25° ENE 17:18:28 10° N
Cosmos 1633 3.1 17:13:42 10° N 17:17:08 36° ENE 17:20:32 10° SE
Cosmos 1486 Rocket 4.5 17:16:50 10° S 17:21:40 40° ESE 17:26:32 10° NE
SMAP 3.0 17:17:04 10° SSE 17:21:44 81° ENE 17:26:25 10° NNW
BREEZE-M DEB (TANK) 2.8 17:19:52 10° W 17:21:45 35° S 17:24:07 10° ESE
Cosmos 1782 Rocket 3.9 17:19:02 10° N 17:23:11 41° ENE 17:27:19 10° SE
NOSS 3-2 (C) 4.1 17:17:59 10° WSW 17:24:06 56° NNW 17:30:38 12° NE
SL-16 R/B 4.5 17:19:37 10° N 17:24:24 24° NW 17:29:11 10° WSW
Cosmos 1844 Rocket 2.9 17:20:37 10° SW 17:26:16 75° WNW 17:31:55 10° NNE
COSMO-SKYMED 1 3.7 17:27:46 15° NE 17:30:13 24° E 17:33:45 10° SSE
BREEZE-M DEB (TANK) 3.8 17:28:25 10° SW 17:30:31 30° SSE 17:32:12 18° ESE
NOSS 3-2 (A) 4.3 17:26:12 10° W 17:32:16 47° NNW 17:38:21 13° NE
USA 161 2.8 17:30:56 10° NNW 17:32:36 25° WNW 17:34:21 10° SW
CZ-4C R/B 2.8 17:27:24 10° NW 17:34:06 63° NE 17:41:46 10° ESE
YAOGAN 1 2.5 17:31:16 10° SSE 17:35:33 63° ENE 17:39:52 10° N
Cosmos 1725 Rocket 4.3 17:35:57 10° SSW 17:42:12 70° WNW 17:48:28 10° N
FENGYUN 3A 3.9 17:37:22 10° SE 17:42:29 44° ENE 17:47:34 10° N
CENTAUR R/B 2.7 17:36:37 10° SW 17:42:56 80° NW 17:49:07 15° NE
SPOT 3 Rocket 3.6 17:42:35 10° SE 17:47:40 54° ENE 17:52:45 10° N
Cosmos 1833 Rocket 2.7 17:44:37 10° NNW 17:50:17 83° WSW 17:55:55 10° SSE
Cosmos 2151 Rocket 4.2 17:51:16 10° N 17:55:17 33° ENE 17:57:04 24° ESE
Nadezhda 4 Rocket 4.2 17:50:30 10° N 17:56:20 43° ENE 18:02:07 10° SE
Cosmos 1703 Rocket 3.5 17:52:31 10° S 17:56:57 67° E 18:01:23 10° NNE
Cosmos 2221 Rocket 3.8 17:52:47 10° SSE 17:56:57 44° E 17:59:46 19° NNE
Meteor 1-28 Rocket 3.0 17:57:14 12° NNE 18:00:43 86° ESE 18:04:26 10° SSW
Cosmos 1844 4.3 17:56:51 10° SW 18:02:33 57° NW 18:07:57 12° NNE
Cosmos 2297 4.1 17:57:46 10° S 18:03:09 43° ESE 18:05:45 27° ENE
Cosmos 2263 Rocket 4.2 18:00:29 10° WNW 18:04:28 19° NNW 18:08:28 10° NNE
Cosmos 2227 Rocket 4.3 18:04:30 10° NNW 18:06:19 11° N 18:07:57 10° NNE
Cosmos 2278 Rocket 2.2 18:00:40 10° SSW 18:06:22 90° NW 18:10:48 17° NNE
Meteor 2-20 4.4 18:01:13 10° N 18:07:17 61° ENE 18:13:16 10° SSE
Okean 2 Rocket 3.0 18:03:58 10° N 18:08:32 75° E 18:13:03 10° SSE
CZ-2C R/B 3.6 18:04:08 10° NNE 18:08:38 86° ESE 18:13:11 10° SSW
Timation 2 Rocket 4.1 18:02:36 10° NNW 18:09:27 69° NE 18:16:03 10° SE
Cosmos 2034 Rocket 4.2 18:03:35 10° SSE 18:09:38 48° E 18:15:40 10° NNE
Cosmos 405 2.9 18:06:03 10° N 18:09:39 64° ENE 18:13:13 10° SSE
Cosmos 44 Rocket 3.6 18:05:27 10° NW 18:10:17 68° SW 18:15:12 10° SSE
Landsat 4 3.6 18:10:56 25° NNE 18:13:03 81° ESE 18:16:52 10° SSW
Cosmos 1606 2.5 18:09:32 10° S 18:13:19 86° E 18:15:32 24° NNE
MTI 3.6 18:13:27 70° E 18:13:31 70° ESE 18:16:44 10° S
NOAA 12 4.0 18:09:02 10° SSE 18:14:20 76° ENE 18:19:40 10° NNW
Meteor 1-11 Rocket 3.7 18:08:29 10° N 18:14:23 67° ENE 18:20:07 10° SSE
Cosmos 1092 Rocket 4.3 18:08:39 10° N 18:14:29 42° ENE 18:20:17 10° SE
Cosmos 292 Rocket 3.8 18:12:04 10° NNW 18:16:51 80° WSW 18:21:36 10° SSE
SKYMED 2 3.5 18:16:21 28° NNE 18:18:33 65° ESE 18:22:52 10° S
EO 1 Del DPAF 3.2 18:18:45 57° ENE 18:19:07 61° ESE 18:22:54 10° S
COSMOS 2487 2.5 18:19:11 10° NNW 18:22:20 63° NNE 18:22:20 63° NNE
CZ-4 R/B 3.2 18:20:19 10° SSW 18:23:45 31° W 18:27:12 10° NNW
Intercosmos 25 4.1 18:18:00 10° S 18:25:04 86° WNW 18:29:01 13° N
Lacrosse 5 2.3 18:20:35 10° WNW 18:25:30 48° N 18:26:50 39° NE
ATLAS 3B R/B 3.8 18:25:51 10° WNW 18:32:03 31° N 18:34:49 24° NE
Cosmos 44 4.4 18:29:15 10° NW 18:33:37 42° WSW 18:38:11 10° SSE
Cosmos 773 Rocket 4.1 18:29:54 10° NNW 18:34:52 49° NE 18:34:52 49° NE
Cosmos 1602 4.0 18:31:56 10° NNW 18:35:45 65° W 18:39:33 10° S
Cosmos 1464 Rocket 3.9 18:30:47 10° S 18:36:56 89° W 18:43:10 10° N
COSMOS 2455 3.5 18:31:06 10° WSW 18:36:58 51° NW 18:40:35 23° NNE
Cosmos 2297 Rocket 4.3 18:35:40 10° NNW 18:37:53 12° NNE 18:38:14 12° NNE
ERS-2 3.9 18:35:13 10° SSW 18:38:35 34° W 18:41:59 10° NNW
Cosmos 2082 Rocket 3.6 18:35:23 10° NW 18:40:39 39° WSW 18:45:51 10° S
Cosmos 968 Rocket 4.3 18:36:24 10° S 18:39:43 34° SSE 18:39:43 34° SSE
Cosmos 1503 Rocket 3.9 18:37:13 10° SSW 18:42:29 89° WNW 18:44:29 39° NNE
Okean 1-7 3.5 18:40:37 10° SSW 18:44:58 60° WNW 18:47:58 20° N
USA 234 3.7 18:46:02 39° ESE 18:46:40 40° SE 18:52:44 10° SSW
ATLAS CENTAUR R/B 3.6 18:45:18 10° NNW 18:46:07 13° N 18:46:07 13° N
Cosmos 1782 3.9 18:44:32 10° SSW 18:48:22 43° WNW 18:50:51 20° N
Cosmos 405 Rocket 3.7 18:44:40 10° SSW 18:47:03 37° SSW 18:47:03 37° SSW
Meteor 2-6 Rocket 4.3 18:44:44 10° SSW 18:50:13 75° WNW 18:55:54 10° N
DMSP B5D1-3 4.4 18:49:39 53° NNE 18:50:53 78° ESE 18:56:03 10° SSW
Meteor 2-20 Rocket 4.4 18:45:06 10° NNW 18:51:15 86° W 18:57:20 10° S
ALOS 3.0 18:47:15 10° S 18:51:49 53° W 18:56:25 10° NNW
Cosmos 2026 Rocket 4.2 18:49:11 10° N 18:54:37 49° NE 18:54:37 49° NE
COSMO-SKYMED 1 3.5 19:05:00 31° NNW 19:06:36 46° WNW 19:10:46 10° SW
FengYun 1-2 T 4.4 19:04:23 10° S 19:09:55 73° WSW 19:15:32 10° NNW
Meteor 1-5 Rocket 4.4 19:11:35 10° NNW 19:16:54 65° W 19:19:04 35° SSW
CZ-4C R/B 3.7 19:16:03 10° NW 19:22:45 48° WSW 19:28:41 16° S
Meteor 1-27 Rocket 4.1 19:17:28 10° SSW 19:23:21 66° WNW 19:26:57 25° N
CENTAUR R/B 3.7 19:28:26 10° W 19:34:41 39° NNW 19:36:18 35° NNE
Cosmos 2278 Rocket 4.0 19:46:36 10° W 19:51:14 25° NW 19:52:40 23° NNW
Cosmos 2227 Rocket 4.4 19:48:29 10° NNW 19:49:46 15° N 19:49:46 15° N
Lacrosse 5 3.9 20:03:58 10° WNW 20:06:02 24° WNW 20:06:02 24° WNW
ATLAS 3B R/B 4.0 20:18:02 10° NW 20:22:04 30° NNW 20:22:04 30° NNW
